Showing default

TIANPING 3B-02, 61616

Orbit data source: Space-Track

TIANPING 3B-02, 61616 is a payload satellite owned by ZJUNI-SAT (CN) in SSO that was launched on Tue, 22 Oct 2024 UTC via a CHANG ZHENG 6 launch vehicle from the Taiyaun Space Center, China (TSC). Payload-class satellites include a variety of spacecraft equipped with specific instruments for various scientific and technological missions. These include communications satellites like Starlink; space stations such as the ISS; scientific satellites like the Hubble; Earth observation satellites from companies like Planet Labs, Umbra, and HawkEye 360; GPS; miniature CubeSats for education and research; and military/defense satellites.

Loading next visibility...
Identifier
61616, 2024-189C
Orbit
SSO
Country
Flag of CNCN / PRC
Related business
Manufacturer
CASIC/ZJUNI
Mission
Operational Defense Calibration
Bus & Motor
TP-3, Unknown motor
Mass
200 kg wet, ~200 kg dry
Launch date (UTC)
2024-10-22 (2 years ago)
Launch vehicle
CHANG ZHENG 6
Launch site
Taiyaun Space Center, China (TSC)
Object type
Payload
Rocket body
Debris
Shape & HBR
Box, 0.3 m
Radar Cross Section
0.135 m², Large (>1 m²)

Expand to show TLE details & history
Last TLE update: 8 hours ago

TLE from 8 hours ago
0 TIANPING 3B-02
1 61616U 24189C   26171.51319230  .00001772  00000-0  14333-3 0  9999
2 61616  97.5198 191.6501 0002303  79.9155 280.2329 15.00995073 90945
Epoch: 2026-06-20T12:18Z
TLE epoch observation values (Epoch: 2026-06-20T12:18:59.814Z)
Latitude
-0.00006°
Longitude
98.17414°
Altitude
566.604 km
Speed
7.578 km/s
True Right ascension
12h 46m 36s
True Declination
0° 00' 00"
Sunlit
Object was in daylight at epoch
Visualization orbit readout
Latitude
Unknown
Longitude
Unknown
Altitude
Unknown
Speed
Unknown
Apparent Right ascension
Unknown
Apparent Declination
Unknown
Sunlit
N/A
Visualization observer readout
Local Sidereal Time
07:20:49
Azimuth
Unknown
Elevation
Unknown
Doppler factor
Unknown
Orbital elements
Apogee altitude
562.421 km
Perigee altitude
559.225 km
Semi-major axis
6,938.96 km
Eccentricity
0.00023
Inclination
97.5198°
RAAN
191.6501°
Arg. of periapsis
79.9155°
True anomaly
280.20693°
Mean anomaly
280.2329°
Eccentric anomaly
280.21991°
Mean motion
3.75493 °/min
Orbital period
95.87 mins
BSTAR
0.00014333
Loading maneuver chart data...
Computing Atmospheric mass density...
Loading historical data...
Loading historical data...
Loading historical data...
Loading historical data...
Loading historical data...
Loading historical data...
Loading historical data...
Other satellites on launch #189 in the year 2024 (2024-10-22 UTC)

Documentation

Showing up to 5 results
|